Location: Newark
(12.4436°N, 0.6167°W)
Time: 05:43:37
(UTC+00:00)

Tiros 1 - All Passes

Search period start: 13 December 2019 00:00
Search period end: 23 December 2019 00:00
Orbit: 630 x 664 km, 48.4° (Epoch: 12 December)

Date Brightness Start Highest point End Pass type
(mag) Time Alt. Az. Time Alt. Az. Time Alt. Az.
13 Dec - 01:48:34 10° S 01:52:11 21° SE 01:55:47 10° ENE night (unlit)
13 Dec - 03:29:53 10° WSW 03:34:12 33° NW 03:38:28 10° NNE night (unlit)
13 Dec - 12:13:44 10° N 12:17:28 24° NE 12:21:13 10° E daylight
13 Dec - 13:55:37 10° WNW 13:59:31 27° SW 14:03:26 10° S daylight
14 Dec - 02:13:21 10° SSW 02:18:07 68° SE 02:22:51 10° NE night (unlit)
14 Dec - 03:58:41 10° WNW 04:00:27 12° NW 04:02:13 10° NNW night (unlit)
14 Dec - 12:38:58 10° NW 12:43:34 77° NE 12:48:10 10° SE daylight
15 Dec - 00:58:47 10° S 01:02:09 19° SE 01:05:30 10° E night (unlit)
15 Dec - 02:39:43 10° WSW 02:44:08 37° NW 02:48:33 10° NNE night (unlit)
15 Dec - 11:23:52 10° N 11:27:25 22° NE 11:30:58 10° E daylight
15 Dec - 13:05:27 10° WNW 13:09:30 31° SW 13:13:34 10° S daylight
16 Dec - 01:23:21 10° SSW 01:28:04 60° SE 01:32:46 10° NE night (unlit)
16 Dec - 03:08:04 10° WNW 03:10:22 13° NW 03:12:40 10° NNW night (unlit)
16 Dec - 11:48:57 10° NW 11:53:32 68° NE 11:58:07 10° SE daylight
17 Dec - 00:09:03 10° SSE 00:12:07 17° SE 00:15:10 10° E night (unlit)
17 Dec - 01:49:33 10° WSW 01:54:05 42° NW 01:58:36 10° NNE night (unlit)
17 Dec - 10:34:02 10° N 10:37:22 20° NE 10:40:43 10° E daylight
17 Dec - 12:15:18 10° WNW 12:19:29 35° SW 12:23:41 10° SSE daylight
18 Dec - 00:33:21 10° SSW 00:38:02 53° SE 00:42:41 10° NE night (unlit)
18 Dec - 02:17:34 10° WNW 02:20:18 15° NW 02:23:00 10° N night (unlit)
18 Dec - 10:58:57 10° NNW 11:03:31 60° NE 11:08:03 10° SE daylight
18 Dec - 12:44:25 10° WSW 12:45:23 11° SW 12:46:21 10° SW daylight
18 Dec - 23:19:23 10° SSE 23:22:05 15° SE 23:24:46 10° E night (unlit)
19 Dec - 00:59:24 10° WSW 01:04:02 47° NW 01:08:38 10° NNE night (unlit)
19 Dec - 09:44:13 10° N 09:47:19 18° NE 09:50:24 10° E daylight
19 Dec - 11:25:10 10° WNW 11:29:28 40° SW 11:33:47 10° SSE daylight
19 Dec - 23:43:23 10° SSW 23:47:59 46° SE 23:52:35 10° NE night (unlit)
20 Dec - 01:27:09 10° W 01:30:12 17° NW 01:33:15 10° N night (unlit)
20 Dec - 10:08:58 10° NNW 10:13:29 52° NE 10:17:58 10° SE daylight
20 Dec - 11:53:32 10° WSW 11:55:22 12° SW 11:57:12 10° SSW daylight
20 Dec - 22:29:49 10° SSE 22:32:02 13° SE 22:34:15 10° E night (unlit)
21 Dec - 00:09:17 10° SW 00:13:58 54° NW 00:18:39 10° NNE night (unlit)
21 Dec - 08:54:26 10° N 08:57:16 16° NE 09:00:03 10° E daylight
21 Dec - 10:35:03 10° NW 10:39:27 45° SW 10:43:51 10° SSE daylight
21 Dec - 22:53:26 10° SSW 22:57:57 41° SE 23:02:27 10° ENE night (unlit)
22 Dec - 00:36:48 10° W 00:40:08 19° NW 00:43:28 10° N night (unlit)
22 Dec - 09:18:59 10° NNW 09:23:27 46° NE 09:27:52 10° ESE daylight
22 Dec - 11:02:58 10° W 11:05:21 14° SW 11:07:44 10° SSW daylight
22 Dec - 21:40:26 10° SE 21:42:00 11° SE 21:43:34 10° ESE night (unlit)
22 Dec - 23:19:11 10° SW 23:23:55 61° NW 23:28:39 10° NNE night (unlit)
